User: anonymous   Login
Location: Kitchener
(43.2612°N, 80.5078°W)
Time: 22:15:19
(UTC+01:00)
Language:

Iridium 57 - Orbit

View from above orbital plane
View from above orbital plane
View from above satellite
View from above satellite

Ground track
Ground track

The orbit data is extracted from the following two-line orbital elements,

1 25273U 98019B   17324.29124073  .00000141  00000-0  43229-4 0  9991
2 25273  86.4007 222.0526 0002010  82.4642 277.6782 14.34290163 28444
Epoch (UTC): 20 November 2017 06:59:23
Eccentricity: 0.0002010
inclination: 86.4007°
perigee height: 776 km
apogee height: 779 km
right ascension of ascending node: 222.0526°
argument of perigee: 82.4642°
revolutions per day: 14.34290163
mean anomaly at epoch: 277.6782°
orbit number at epoch: 2844

The dashed part of the orbit path shows where the satellite is in the earth's shadow,  

DLR